Location: Township of South Roscoe
(37.9570°N, 100.1180°W)
Time: 14:23:52
(UTC+00:00)

CZ-4C R/B - Pass Details

Date: 17 October 2021
Orbit: 597 x 1405 km, 63.4° (Epoch: 04 December)

Event Time Altitude Azimuth Distance (km) Brightness Sun altitude
Rises 12:19:14 0° 332° (NNW) 3,858 5.3 -7.1°
Reaches altitude 10° 12:21:53 10° 339° (NNW) 3,013 4.8 -6.6°
Maximum altitude 12:28:56 45° 50° (NE) 1,676 4.2 -5.2°
Drops below altitude 10° 12:36:58 10° 121° (ESE) 3,437 6.7 -3.6°
Sets 12:40:10 0° 127° (SE) 4,446 7.2 -3.0°
